Hourly Data Report for October 22, 2013

All times are specified in Local Standard Time (LST). Add 1 hour to adjust for Daylight Saving Time where and when it is observed.

CAPE DORSET A
NUNAVUT

64°13'49.000" N
76°31'30.000" W
48.20 m
2400637
71366
YTE

Download Data

Hourly Data (October 2013)
Hourly Data Report for October 22, 2013
Temp Definition
°C
Dew Point Temp Definition
°C
Rel Hum Definition
%
Wind Dir Definition
10's deg

Wind Spd Definition
km/h
Visibility Definition
km
Stn Press Definition
kPa
Hmdx Definition


Wind Chill Definition


Weather Definition


TIME
00:00 Legend Double Dagger 0.0 -0.1 99 9 22 0.6 100.89   -6 LegendNANA
01:00 Legend Double Dagger -0.1 -0.2 99 9 28 0.6 100.88   -6 LegendNANA
02:00 Legend Double Dagger 0.0 -0.1 99 8 18 0.8 100.88   -5 LegendNANA
03:00 Legend Double Dagger 0.2 LegendMM LegendMM 8 17 0.4 100.88     LegendNANA
04:00 Legend Double Dagger 0.0 0.0 100 8 22 0.4 100.86   -6 LegendNANA
05:00 Legend Double Dagger 0.1 0.1 100 7 18 0.6 100.85     LegendNANA
06:00 Legend Double Dagger 0.0 0.0 100 7 15 0.4 100.83   -4 LegendNANA
07:00 Legend Double Dagger -0.1 -0.1 100 7 17 0.4 100.82   -5 LegendNANA
08:00 Legend Double Dagger 0.0 LegendMM LegendMM 7 17 0.4 100.80   -5 LegendNANA
09:00 Legend Double Dagger -0.1 -0.1 100 9 17 0.4 100.79   -5 LegendNANA
10:00 Legend Double Dagger -0.1 LegendMM LegendMM 7 15 0.4 100.77   -5 LegendNANA
11:00 Legend Double Dagger -0.1 LegendMM LegendMM 10 15 1.6 100.75   -5 LegendNANA
12:00 Legend Double Dagger -0.2 -0.2 100 10 17 0.4 100.74   -5 LegendNANA
13:00 Legend Double Dagger -0.7 -0.7 100 10 17 0.6 100.75   -6 LegendNANA
14:00 Legend Double Dagger -0.9 -0.9 100 10 15 1.2 100.76   -6 LegendNANA
15:00 Legend Double Dagger -0.8 -0.8 100 9 18 16.1 100.76   -6 LegendNANA
16:00 Legend Double Dagger -1.0 -1.1 99 9 18 4.8 100.75   -6 LegendNANA
17:00 Legend Double Dagger -1.1 -1.2 99 8 15 2.0 100.76   -6 LegendNANA
18:00 Legend Double Dagger -1.3 -1.4 99 8 17 2.0 100.77   -6 LegendNANA
19:00 Legend Double Dagger -1.3 -1.4 99 9 17 1.6 100.77   -6 LegendNANA
20:00 Legend Double Dagger -0.9 -1.0 99 10 17 1.2 100.74   -6 LegendNANA
21:00 Legend Double Dagger -0.6 -0.7 99 10 11 0.8 100.73   -4 LegendNANA
22:00 Legend Double Dagger -0.7 -0.8 99 10 11 1.2 100.72   -4 LegendNANA
23:00 Legend Double Dagger -0.9 -1.0 99 12 13 14.5 100.72   -5 LegendNANA

Notes on Data Quality.

Legend

  • E = Estimated
  • M = Missing
  • NA = Not Available
  • ‡ = Partner data that is not subject to review by the National Climate Archives
Date modified: